map of GPA home
Great Circle Mapper logo
GPA - Airport
Location
City:  Patras, Greece
Name:Araxos
ICAO / IATA:LGRX / GPA

Details
Type:Airport (Aerodrome, Airfield)
Use:Military
Latitude:3809'04"N (38.151111)
Longitude:2125'32"E (21.425556)
Datum:WGS 1984
Elevation:46 ft (14 m)
Variation:3.8E (WMM2010 magnetic declination)
Runways:2
Longest:10999 × 70 ft (3352 × 21.5 m), paved

Time
Time Zone:UTC+2 (DST+3)
Local Time:

Weather
METAR:LGRX 251950Z 04008KT 9999 FEW025 12/06 Q1021 RMK FEW080 BLU

Related Locations
Nearby:
Farthest:CHT: 11429 mi / 18393 km
Waitangi [Tuuta], Chatham Islands, NZ

Find:

   beyond  
but within

Other Information
Maps:
NOTAMs:
Links:
Sources:

  
flag of Greece   

Sectional Chart

Flight Planning
at skyvector.com

Satellite Image

Google Maps Satellite View

 

Copyright © 2004-2014 Karl L. Swartz. All rights reserved.
The Great Circle Mapper name and logo are trademarks of the Great Circle Mapper.
All other trademarks mentioned herein belong to their respective owners.
Please see credits for attibutions and further copyright information.

  Follow gcmap on Facebook Follow gcmap on Twitter

hCard Microformat

Geo Microformat